CZ-4 DEB, 26443

Orbit data source: Space-Track

CZ-4 DEB, 26443 is space debris in SSO originally from a launch on Thu, 14 Oct 1999 UTC launched from the Taiyaun Space Center, China (TSC). Debris objects in space refer to the collection of defunct objects orbiting the Earth. Examples of debris include non-operational satellites, rocket bodies, and fragments generated from explosions, collisions, or faulty payload assembly.

Loading next visibility...
Identifier
26443, 1999-057KQ
Orbit
SSO
Country
Flag of CNCN / PRC
Related business
Manufacturer
Unknown
Mission
Spacecraft
Bus & Motor
Unknown
Mass
Unknown
Launch date (UTC)
1999-10-14 (26 years ago)
Launch vehicle
Unknown
Launch site
Taiyaun Space Center, China (TSC)
Object type
Payload
Rocket body
Debris
Shape & HBR
Unknown shape, 0.1 m
Radar Cross Section
Small (<0.1 m²)

Expand to show TLE details & history
Last TLE update: 17 hours ago

TLE from 17 hours ago
0 CZ-4 DEB
1 26443U 99057KQ  25348.92001159  .00000877  00000-0  26355-3 0  9994
2 26443  98.6478  42.2658 0091743 288.0652 252.6873 14.42939257346962
Epoch: 2025-12-14T22:04Z
TLE epoch observation values (Epoch: 2025-12-14T22:04:49.001Z)
Latitude
0.12831°
Longitude
167.25503°
Altitude
771.741 km
Speed
7.458 km/s
True Right ascension
14h 49m 08s
True Declination
0° 07' 39"
Sunlit
Object was in daylight at epoch
Visualization orbit readout
Latitude
Unknown
Longitude
Unknown
Altitude
Unknown
Speed
Unknown
Apparent Right ascension
Unknown
Apparent Declination
Unknown
Sunlit
N/A
Visualization observer readout
Local Sidereal Time
13:23:53
Azimuth
Unknown
Elevation
Unknown
Doppler factor
Unknown
Orbital elements
Apogee altitude
811.287 km
Perigee altitude
680.57 km
Semi-major axis
7,124.065 km
Eccentricity
0.00917
Inclination
98.6478°
RAAN
42.2658°
Arg. of periapsis
288.0652°
True anomaly
251.6871°
Mean anomaly
252.6873°
Eccentric anomaly
252.18685°
Mean motion
3.60954 °/min
Orbital period
99.74 mins
BSTAR
0.00026355
Loading maneuver chart data...
Computing Atmospheric mass density...
Loading historical data...
Loading historical data...
Loading historical data...
Loading historical data...
Loading historical data...
Loading historical data...
Loading historical data...

Documentation

Showing up to 5 results
|